• In Österreich
  • Länderverzeichnis
  • Für 7 Tage
  • Wassertemperatur
  • Satellitenkarten
  • Wetterkarte
  • News
  • Widgets
  • user-avatar
    Anmelden

    Stündliche Wetter Przasnysz

    Heute, 16 Oktober, Dienstag

    Zeit Temperatur Niederschläge Wind Luftdruck Luftfeuchtigkeit
    00:00 +10°C° 0 mm 3 m/S 755 mmHg 64%
    01:00 +10°C° 0 mm 3 m/S 755 mmHg 65%
    02:00 +10°C° 0 mm 2 m/S 755 mmHg 66%
    03:00 +10°C° 0 mm 2 m/S 755 mmHg 68%
    04:00 +10°C° 0 mm 2 m/S 755 mmHg 70%
    05:00 +10°C° 0 mm 2 m/S 755 mmHg 70%
    06:00 +10°C° 0 mm 2 m/S 755 mmHg 70%
    07:00 +10°C° 0 mm 2 m/S 755 mmHg 71%
    08:00 +13°C° 0 mm 2 m/S 755 mmHg 64%
    09:00 +15°C° 0 mm 2 m/S 756 mmHg 57%
    10:00 +17°C° 0 mm 2 m/S 756 mmHg 50%
    11:00 +18°C° 0 mm 2 m/S 755 mmHg 46%
    12:00 +20°C° 0 mm 2 m/S 755 mmHg 41%
    13:00 +21°C° 0 mm 2 m/S 755 mmHg 37%
    14:00 +20°C° 0 mm 2 m/S 755 mmHg 40%
    15:00 +19°C° 0 mm 2 m/S 755 mmHg 43%
    16:00 +18°C° 0 mm 2 m/S 755 mmHg 47%
    17:00 +17°C° 0 mm 2 m/S 755 mmHg 50%
    18:00 +15°C° 0 mm 1 m/S 755 mmHg 52%
    19:00 +14°C° 0 mm 1 m/S 755 mmHg 55%
    20:00 +14°C° 0 mm 1 m/S 755 mmHg 57%
    21:00 +13°C° 0 mm 1 m/S 755 mmHg 58%
    22:00 +13°C° 0 mm 1 m/S 756 mmHg 59%
    23:00 +12°C° 0 mm 1 m/S 756 mmHg 60%

    Morgen, 17 Oktober, Mittwoch

    Zeit Temperatur Niederschläge Wind Luftdruck Luftfeuchtigkeit
    00:00 +12°C° 0 mm 1 m/S 756 mmHg 61%
    01:00 +11°C° 0 mm 1 m/S 756 mmHg 63%
    02:00 +11°C° 0 mm 1 m/S 756 mmHg 63%
    03:00 +11°C° 0 mm 1 m/S 756 mmHg 64%
    04:00 +10°C° 0 mm 1 m/S 755 mmHg 65%
    05:00 +11°C° 0 mm 1 m/S 756 mmHg 65%
    06:00 +11°C° 0 mm 1 m/S 756 mmHg 65%
    07:00 +11°C° 0 mm 1 m/S 756 mmHg 64%
    08:00 +13°C° 0 mm 1 m/S 756 mmHg 58%
    09:00 +15°C° 0 mm 1 m/S 756 mmHg 51%
    10:00 +17°C° 0 mm 2 m/S 756 mmHg 44%
    11:00 +18°C° 0 mm 2 m/S 756 mmHg 41%
    12:00 +20°C° 0 mm 1 m/S 756 mmHg 39%
    13:00 +21°C° 0 mm 1 m/S 756 mmHg 36%
    14:00 +20°C° 0 mm 1 m/S 755 mmHg 39%
    15:00 +19°C° 0 mm 1 m/S 755 mmHg 42%
    16:00 +18°C° 0 mm 1 m/S 755 mmHg 45%
    17:00 +16°C° 0 mm 1 m/S 755 mmHg 48%
    18:00 +15°C° 0 mm 2 m/S 755 mmHg 51%
    19:00 +14°C° 0 mm 2 m/S 755 mmHg 54%
    20:00 +13°C° 0 mm 2 m/S 755 mmHg 56%
    21:00 +13°C° 0 mm 2 m/S 755 mmHg 58%
    22:00 +13°C° 0 mm 2 m/S 755 mmHg 60%
    23:00 +12°C° 0 mm 2 m/S 755 mmHg 62%

    übermorgen, 18 Oktober, Donnerstag

    Zeit Temperatur Niederschläge Wind Luftdruck Luftfeuchtigkeit
    00:00 +12°C° 0 mm 2 m/S 755 mmHg 63%
    01:00 +12°C° 0 mm 2 m/S 755 mmHg 65%
    02:00 +12°C° 0 mm 1 m/S 755 mmHg 66%
    03:00 +12°C° 0 mm 1 m/S 754 mmHg 67%
    04:00 +12°C° 0 mm 1 m/S 754 mmHg 68%
    05:00 +12°C° 0 mm 1 m/S 754 mmHg 69%
    06:00 +12°C° 0 mm 1 m/S 754 mmHg 69%
    07:00 +12°C° 0 mm 1 m/S 754 mmHg 70%
    08:00 +12°C° 0 mm 0 m/S 754 mmHg 64%
    09:00 +14°C° 0 mm 0 m/S 754 mmHg 58%
    10:00 +16°C° 0 mm 0 m/S 754 mmHg 52%
    11:00 +19°C° 0 mm 1 m/S 754 mmHg 48%
    12:00 +20°C° 0 mm 1 m/S 754 mmHg 45%
    13:00 +21°C° 0 mm 1 m/S 753 mmHg 42%
    14:00 +20°C° 0 mm 1 m/S 753 mmHg 46%
    15:00 +19°C° 0 mm 1 m/S 753 mmHg 49%
    16:00 +19°C° 0 mm 1 m/S 753 mmHg 53%
    17:00 +18°C° 0 mm 1 m/S 753 mmHg 56%
    18:00 +16°C° 0 mm 1 m/S 753 mmHg 60%
    19:00 +15°C° 0 mm 1 m/S 753 mmHg 63%
    20:00 +15°C° 0 mm 1 m/S 753 mmHg 66%
    21:00 +14°C° 0 mm 1 m/S 753 mmHg 69%
    22:00 +14°C° 0 mm 1 m/S 754 mmHg 72%
    23:00 +14°C° 0 mm 1 m/S 754 mmHg 74%

    19 Oktober, Freitag

    Zeit Temperatur Niederschläge Wind Luftdruck Luftfeuchtigkeit
    00:00 +13°C° 0 mm 1 m/S 754 mmHg 76%
    01:00 +13°C° 0 mm 1 m/S 754 mmHg 79%
    02:00 +13°C° 0 mm 1 m/S 754 mmHg 81%
    03:00 +12°C° 0 mm 1 m/S 754 mmHg 83%
    04:00 +12°C° 0 mm 1 m/S 754 mmHg 85%
    05:00 +12°C° 0 mm 1 m/S 754 mmHg 86%
    06:00 +11°C° 0 mm 1 m/S 754 mmHg 86%
    07:00 +11°C° 0 mm 1 m/S 754 mmHg 86%
    08:00 +13°C° 0 mm 2 m/S 754 mmHg 81%
    09:00 +14°C° 0 mm 2 m/S 754 mmHg 75%
    10:00 +15°C° 0 mm 2 m/S 755 mmHg 70%
    11:00 +16°C° 0 mm 2 m/S 754 mmHg 69%
    12:00 +16°C° 0 mm 2 m/S 754 mmHg 68%
    13:00 +17°C° 0 mm 3 m/S 754 mmHg 68%
    14:00 +16°C° 0 mm 3 m/S 754 mmHg 71%
    15:00 +14°C° 0 mm 3 m/S 754 mmHg 74%
    16:00 +14°C° 0 mm 3 m/S 754 mmHg 77%
    17:00 +13°C° 0 mm 3 m/S 755 mmHg 80%
    18:00 +12°C° 0 mm 3 m/S 755 mmHg 82%
    19:00 +11°C° 0 mm 3 m/S 755 mmHg 85%
    20:00 +11°C° 0 mm 3 m/S 755 mmHg 87%
    21:00 +10°C° 0 mm 3 m/S 755 mmHg 88%
    22:00 +9°C° 0 mm 3 m/S 756 mmHg 90%
    23:00 +9°C° 0 mm 3 m/S 756 mmHg 91%

    20 Oktober, Samstag

    Zeit Temperatur Niederschläge Wind Luftdruck Luftfeuchtigkeit
    00:00 +8°C° 0 mm 3 m/S 756 mmHg 92%
    01:00 +7°C° 0 mm 2 m/S 756 mmHg 93%
    02:00 +7°C° 0 mm 2 m/S 756 mmHg 93%
    03:00 +6°C° 0 mm 2 m/S 755 mmHg 93%
    04:00 +6°C° 0 mm 2 m/S 755 mmHg 94%
    05:00 +6°C° 0 mm 2 m/S 756 mmHg 93%
    06:00 +6°C° 0 mm 2 m/S 756 mmHg 93%
    07:00 +6°C° 0 mm 2 m/S 756 mmHg 93%
    08:00 +7°C° 0 mm 2 m/S 756 mmHg 85%
    09:00 +9°C° 0 mm 2 m/S 756 mmHg 77%
    10:00 +11°C° 0 mm 3 m/S 756 mmHg 69%
    11:00 +11°C° 0 mm 3 m/S 756 mmHg 64%
    12:00 +12°C° 0 mm 3 m/S 756 mmHg 60%
    13:00 +12°C° 0 mm 3 m/S 755 mmHg 56%
    14:00 +12°C° 0 mm 3 m/S 755 mmHg 59%
    15:00 +11°C° 0 mm 3 m/S 755 mmHg 62%
    16:00 +10°C° 0 mm 2 m/S 755 mmHg 65%
    17:00 +9°C° 0 mm 2 m/S 755 mmHg 69%
    18:00 +9°C° 0 mm 2 m/S 755 mmHg 72%
    19:00 +8°C° 0 mm 2 m/S 755 mmHg 76%
    20:00 +8°C° 0 mm 2 m/S 755 mmHg 78%
    21:00 +8°C° 0 mm 2 m/S 755 mmHg 79%
    22:00 +8°C° 0 mm 2 m/S 755 mmHg 80%
    23:00 +7°C° 0 mm 2 m/S 755 mmHg 82%

    21 Oktober, Sonntag

    Zeit Temperatur Niederschläge Wind Luftdruck Luftfeuchtigkeit
    00:00 +7°C° 0 mm 2 m/S 755 mmHg 84%
    01:00 +7°C° 0 mm 2 m/S 755 mmHg 86%
    02:00 +7°C° 0 mm 2 m/S 755 mmHg 87%
    03:00 +7°C° 0 mm 2 m/S 755 mmHg 88%
    04:00 +7°C° 0 mm 2 m/S 755 mmHg 89%
    05:00 +7°C° 0 mm 2 m/S 755 mmHg 91%
    06:00 +7°C° 0 mm 2 m/S 755 mmHg 92%
    07:00 +6°C° 0 mm 2 m/S 755 mmHg 93%
    08:00 +8°C° 0 mm 2 m/S 755 mmHg 86%
    09:00 +9°C° 0 mm 2 m/S 756 mmHg 79%
    10:00 +12°C° 0 mm 2 m/S 756 mmHg 72%
    11:00 +12°C° 0 mm 2 m/S 756 mmHg 70%
    12:00 +13°C° 0 mm 2 m/S 756 mmHg 67%
    13:00 +13°C° 0 mm 2 m/S 755 mmHg 64%
    14:00 +13°C° 0.1 mm 2 m/S 755 mmHg 68%
    15:00 +12°C° 0.1 mm 2 m/S 755 mmHg 71%
    16:00 +12°C° 0.1 mm 2 m/S 755 mmHg 75%
    17:00 +10°C° 0 mm 2 m/S 755 mmHg 79%
    18:00 +9°C° 0 mm 2 m/S 756 mmHg 84%
    19:00 +8°C° 0 mm 2 m/S 756 mmHg 88%
    20:00 +8°C° 0 mm 2 m/S 756 mmHg 90%
    21:00 +7°C° 0 mm 2 m/S 756 mmHg 92%
    22:00 +6°C° 0 mm 2 m/S 756 mmHg 94%
    23:00 +7°C° 0 mm 1 m/S 756 mmHg 94%
    Mehr zeigen